owner,sensor,date,latitude,longitude,vertical_datum,sea_water_practical_salinity,qcFlag 
ENP,ioos.station.NOAA.NDBC:TRRF1:1,2019-07-01T00:00:00Z,25.2170,-80.6500,1.5,10.59,11111222 
ENP,ioos.station.NOAA.NDBC:TRRF1:1,2019-07-01T01:00:00Z,25.2170,-80.6500,1.5,10.94,11111222 
ENP,ioos.station.NOAA.NDBC:TRRF1:1,2019-07-01T02:00:00Z,25.2170,-80.6500,1.5,11.13,11111222 
ENP,ioos.station.NOAA.NDBC:TRRF1:1,2019-07-01T03:00:00Z,25.2170,-80.6500,1.5,11.2,11111222 
ENP,ioos.station.NOAA.NDBC:TRRF1:1,2019-07-01T04:00:00Z,25.2170,-80.6500,1.5,11.26,11111222 
ENP,ioos.station.NOAA.NDBC:TRRF1:1,2019-07-01T05:00:00Z,25.2170,-80.6500,1.5,11.32,11111222 
ENP,ioos.station.NOAA.NDBC:TRRF1:1,2019-07-01T06:00:00Z,25.2170,-80.6500,1.5,11.37,11111222 
ENP,ioos.station.NOAA.NDBC:TRRF1:1,2019-07-01T07:00:00Z,25.2170,-80.6500,1.5,11.39,11111222 
ENP,ioos.station.NOAA.NDBC:TRRF1:1,2019-07-01T08:00:00Z,25.2170,-80.6500,1.5,11.45,11111222 
ENP,ioos.station.NOAA.NDBC:TRRF1:1,2019-07-01T09:00:00Z,25.2170,-80.6500,1.5,11.52,11111222 
ENP,ioos.station.NOAA.NDBC:TRRF1:1,2019-07-01T10:00:00Z,25.2170,-80.6500,1.5,11.62,11111222 
ENP,ioos.station.NOAA.NDBC:TRRF1:1,2019-07-01T11:00:00Z,25.2170,-80.6500,1.5,11.71,11111222 
ENP,ioos.station.NOAA.NDBC:TRRF1:1,2019-07-01T12:00:00Z,25.2170,-80.6500,1.5,11.76,11111222 
ENP,ioos.station.NOAA.NDBC:TRRF1:1,2019-07-01T13:00:00Z,25.2170,-80.6500,1.5,11.75,11111222 
ENP,ioos.station.NOAA.NDBC:TRRF1:1,2019-07-01T14:00:00Z,25.2170,-80.6500,1.5,11.5,11111222 
ENP,ioos.station.NOAA.NDBC:TRRF1:1,2019-07-01T15:00:00Z,25.2170,-80.6500,1.5,11.43,11111222 
ENP,ioos.station.NOAA.NDBC:TRRF1:1,2019-07-01T16:00:00Z,25.2170,-80.6500,1.5,11.27,11111222 
ENP,ioos.station.NOAA.NDBC:TRRF1:1,2019-07-01T17:00:00Z,25.2170,-80.6500,1.5,10.74,11111222 
ENP,ioos.station.NOAA.NDBC:TRRF1:1,2019-07-01T18:00:00Z,25.2170,-80.6500,1.5,10.68,11111222 
ENP,ioos.station.NOAA.NDBC:TRRF1:1,2019-07-01T19:00:00Z,25.2170,-80.6500,1.5,10.7,11111222 
ENP,ioos.station.NOAA.NDBC:TRRF1:1,2019-07-01T20:00:00Z,25.2170,-80.6500,1.5,10.8,11111222 
ENP,ioos.station.NOAA.NDBC:TRRF1:1,2019-07-01T21:00:00Z,25.2170,-80.6500,1.5,11.04,11111222 
ENP,ioos.station.NOAA.NDBC:TRRF1:1,2019-07-01T22:00:00Z,25.2170,-80.6500,1.5,11.08,11111222 
ENP,ioos.station.NOAA.NDBC:TRRF1:1,2019-07-01T23:00:00Z,25.2170,-80.6500,1.5,11.13,11111222 
ENP,ioos.station.NOAA.NDBC:TRRF1:1,2019-07-02T00:00:00Z,25.2170,-80.6500,1.5,11.28,11111222 
ENP,ioos.station.NOAA.NDBC:TRRF1:1,2019-07-02T01:00:00Z,25.2170,-80.6500,1.5,11.79,11111222 
ENP,ioos.station.NOAA.NDBC:TRRF1:1,2019-07-02T02:00:00Z,25.2170,-80.6500,1.5,12.14,11111222 
ENP,ioos.station.NOAA.NDBC:TRRF1:1,2019-07-02T03:00:00Z,25.2170,-80.6500,1.5,12.5,11111222 
ENP,ioos.station.NOAA.NDBC:TRRF1:1,2019-07-02T04:00:00Z,25.2170,-80.6500,1.5,12.56,11111222 
ENP,ioos.station.NOAA.NDBC:TRRF1:1,2019-07-02T05:00:00Z,25.2170,-80.6500,1.5,12.6,11111222 
ENP,ioos.station.NOAA.NDBC:TRRF1:1,2019-07-02T06:00:00Z,25.2170,-80.6500,1.5,12.62,11111222 
ENP,ioos.station.NOAA.NDBC:TRRF1:1,2019-07-02T07:00:00Z,25.2170,-80.6500,1.5,12.66,11111222 
ENP,ioos.station.NOAA.NDBC:TRRF1:1,2019-07-02T08:00:00Z,25.2170,-80.6500,1.5,12.7,11111222 
ENP,ioos.station.NOAA.NDBC:TRRF1:1,2019-07-02T09:00:00Z,25.2170,-80.6500,1.5,12.74,11111222 
ENP,ioos.station.NOAA.NDBC:TRRF1:1,2019-07-02T10:00:00Z,25.2170,-80.6500,1.5,12.79,11111222 
ENP,ioos.station.NOAA.NDBC:TRRF1:1,2019-07-02T11:00:00Z,25.2170,-80.6500,1.5,12.85,11111222 
ENP,ioos.station.NOAA.NDBC:TRRF1:1,2019-07-02T12:00:00Z,25.2170,-80.6500,1.5,12.85,11111222 
ENP,ioos.station.NOAA.NDBC:TRRF1:1,2019-07-02T13:00:00Z,25.2170,-80.6500,1.5,12.86,11111222 
ENP,ioos.station.NOAA.NDBC:TRRF1:1,2019-07-02T14:00:00Z,25.2170,-80.6500,1.5,12.97,11111222 
ENP,ioos.station.NOAA.NDBC:TRRF1:1,2019-07-02T15:00:00Z,25.2170,-80.6500,1.5,12.9,11111222 
ENP,ioos.station.NOAA.NDBC:TRRF1:1,2019-07-02T16:00:00Z,25.2170,-80.6500,1.5,12.78,11111222 
ENP,ioos.station.NOAA.NDBC:TRRF1:1,2019-07-02T17:00:00Z,25.2170,-80.6500,1.5,12.5,11111222 
ENP,ioos.station.NOAA.NDBC:TRRF1:1,2019-07-02T18:00:00Z,25.2170,-80.6500,1.5,12.52,11111222 
ENP,ioos.station.NOAA.NDBC:TRRF1:1,2019-07-02T19:00:00Z,25.2170,-80.6500,1.5,12.54,11111222 
ENP,ioos.station.NOAA.NDBC:TRRF1:1,2019-07-02T20:00:00Z,25.2170,-80.6500,1.5,12.52,11111222 
ENP,ioos.station.NOAA.NDBC:TRRF1:1,2019-07-02T21:00:00Z,25.2170,-80.6500,1.5,12.48,11111222 
ENP,ioos.station.NOAA.NDBC:TRRF1:1,2019-07-02T22:00:00Z,25.2170,-80.6500,1.5,12.47,11111222 
ENP,ioos.station.NOAA.NDBC:TRRF1:1,2019-07-02T23:00:00Z,25.2170,-80.6500,1.5,12.43,11111222 
ENP,ioos.station.NOAA.NDBC:TRRF1:1,2019-07-03T00:00:00Z,25.2170,-80.6500,1.5,12.6,11111222 
ENP,ioos.station.NOAA.NDBC:TRRF1:1,2019-07-03T01:00:00Z,25.2170,-80.6500,1.5,13.03,11111222 
ENP,ioos.station.NOAA.NDBC:TRRF1:1,2019-07-03T02:00:00Z,25.2170,-80.6500,1.5,13.34,11111222 
ENP,ioos.station.NOAA.NDBC:TRRF1:1,2019-07-03T03:00:00Z,25.2170,-80.6500,1.5,13.6,11111222 
ENP,ioos.station.NOAA.NDBC:TRRF1:1,2019-07-03T04:00:00Z,25.2170,-80.6500,1.5,13.88,11111222 
ENP,ioos.station.NOAA.NDBC:TRRF1:1,2019-07-03T05:00:00Z,25.2170,-80.6500,1.5,14.11,11111222 
ENP,ioos.station.NOAA.NDBC:TRRF1:1,2019-07-03T06:00:00Z,25.2170,-80.6500,1.5,14.43,11111222 
ENP,ioos.station.NOAA.NDBC:TRRF1:1,2019-07-03T07:00:00Z,25.2170,-80.6500,1.5,14.72,11111222 
ENP,ioos.station.NOAA.NDBC:TRRF1:1,2019-07-03T08:00:00Z,25.2170,-80.6500,1.5,14.91,11111222 
ENP,ioos.station.NOAA.NDBC:TRRF1:1,2019-07-03T09:00:00Z,25.2170,-80.6500,1.5,14.99,11111222 
ENP,ioos.station.NOAA.NDBC:TRRF1:1,2019-07-03T10:00:00Z,25.2170,-80.6500,1.5,15.18,11111222 
ENP,ioos.station.NOAA.NDBC:TRRF1:1,2019-07-03T11:00:00Z,25.2170,-80.6500,1.5,15.39,11111222 
ENP,ioos.station.NOAA.NDBC:TRRF1:1,2019-07-03T12:00:00Z,25.2170,-80.6500,1.5,15.7,11111222 
ENP,ioos.station.NOAA.NDBC:TRRF1:1,2019-07-03T13:00:00Z,25.2170,-80.6500,1.5,15.77,11111222 
ENP,ioos.station.NOAA.NDBC:TRRF1:1,2019-07-03T14:00:00Z,25.2170,-80.6500,1.5,15.7,11111222 
ENP,ioos.station.NOAA.NDBC:TRRF1:1,2019-07-03T15:00:00Z,25.2170,-80.6500,1.5,15.32,11111222 
ENP,ioos.station.NOAA.NDBC:TRRF1:1,2019-07-03T16:00:00Z,25.2170,-80.6500,1.5,15.1,11111222 
ENP,ioos.station.NOAA.NDBC:TRRF1:1,2019-07-03T17:00:00Z,25.2170,-80.6500,1.5,15.19,11111222 
ENP,ioos.station.NOAA.NDBC:TRRF1:1,2019-07-03T18:00:00Z,25.2170,-80.6500,1.5,14.96,11111222 
ENP,ioos.station.NOAA.NDBC:TRRF1:1,2019-07-03T19:00:00Z,25.2170,-80.6500,1.5,15.48,11111222 
ENP,ioos.station.NOAA.NDBC:TRRF1:1,2019-07-03T20:00:00Z,25.2170,-80.6500,1.5,15.84,11111222 
ENP,ioos.station.NOAA.NDBC:TRRF1:1,2019-07-03T21:00:00Z,25.2170,-80.6500,1.5,15.83,11111222 
ENP,ioos.station.NOAA.NDBC:TRRF1:1,2019-07-03T22:00:00Z,25.2170,-80.6500,1.5,15.79,11111222 
ENP,ioos.station.NOAA.NDBC:TRRF1:1,2019-07-03T23:00:00Z,25.2170,-80.6500,1.5,15.95,11111222 
ENP,ioos.station.NOAA.NDBC:TRRF1:1,2019-07-04T00:00:00Z,25.2170,-80.6500,1.5,17.58,11111222 
ENP,ioos.station.NOAA.NDBC:TRRF1:1,2019-07-04T01:00:00Z,25.2170,-80.6500,1.5,18.53,11111222 
ENP,ioos.station.NOAA.NDBC:TRRF1:1,2019-07-04T02:00:00Z,25.2170,-80.6500,1.5,19.15,11111222 
ENP,ioos.station.NOAA.NDBC:TRRF1:1,2019-07-04T03:00:00Z,25.2170,-80.6500,1.5,19.5,11111222 
ENP,ioos.station.NOAA.NDBC:TRRF1:1,2019-07-04T04:00:00Z,25.2170,-80.6500,1.5,19.72,11111222 
ENP,ioos.station.NOAA.NDBC:TRRF1:1,2019-07-04T05:00:00Z,25.2170,-80.6500,1.5,20.0,11111222 
ENP,ioos.station.NOAA.NDBC:TRRF1:1,2019-07-04T06:00:00Z,25.2170,-80.6500,1.5,20.04,11111222 
ENP,ioos.station.NOAA.NDBC:TRRF1:1,2019-07-04T07:00:00Z,25.2170,-80.6500,1.5,20.33,11111222 
ENP,ioos.station.NOAA.NDBC:TRRF1:1,2019-07-04T08:00:00Z,25.2170,-80.6500,1.5,20.59,11111222 
ENP,ioos.station.NOAA.NDBC:TRRF1:1,2019-07-04T09:00:00Z,25.2170,-80.6500,1.5,20.8,11111222 
ENP,ioos.station.NOAA.NDBC:TRRF1:1,2019-07-04T10:00:00Z,25.2170,-80.6500,1.5,21.37,11111222 
ENP,ioos.station.NOAA.NDBC:TRRF1:1,2019-07-04T11:00:00Z,25.2170,-80.6500,1.5,21.81,11111222 
ENP,ioos.station.NOAA.NDBC:TRRF1:1,2019-07-04T12:00:00Z,25.2170,-80.6500,1.5,22.33,11111222 
ENP,ioos.station.NOAA.NDBC:TRRF1:1,2019-07-04T13:00:00Z,25.2170,-80.6500,1.5,22.72,11111222 
ENP,ioos.station.NOAA.NDBC:TRRF1:1,2019-07-04T14:00:00Z,25.2170,-80.6500,1.5,22.7,11111222 
ENP,ioos.station.NOAA.NDBC:TRRF1:1,2019-07-04T15:00:00Z,25.2170,-80.6500,1.5,22.49,11111222 
ENP,ioos.station.NOAA.NDBC:TRRF1:1,2019-07-04T16:00:00Z,25.2170,-80.6500,1.5,22.36,11111222 
ENP,ioos.station.NOAA.NDBC:TRRF1:1,2019-07-04T17:00:00Z,25.2170,-80.6500,1.5,22.1,11111222 
ENP,ioos.station.NOAA.NDBC:TRRF1:1,2019-07-04T18:00:00Z,25.2170,-80.6500,1.5,21.79,11111222 
ENP,ioos.station.NOAA.NDBC:TRRF1:1,2019-07-04T19:00:00Z,25.2170,-80.6500,1.5,23.01,11111222 
ENP,ioos.station.NOAA.NDBC:TRRF1:1,2019-07-04T20:00:00Z,25.2170,-80.6500,1.5,22.97,11111222 
ENP,ioos.station.NOAA.NDBC:TRRF1:1,2019-07-04T21:00:00Z,25.2170,-80.6500,1.5,23.67,11111222 
ENP,ioos.station.NOAA.NDBC:TRRF1:1,2019-07-04T22:00:00Z,25.2170,-80.6500,1.5,23.96,11111222 
ENP,ioos.station.NOAA.NDBC:TRRF1:1,2019-07-04T23:00:00Z,25.2170,-80.6500,1.5,24.29,11111222 
ENP,ioos.station.NOAA.NDBC:TRRF1:1,2019-07-05T00:00:00Z,25.2170,-80.6500,1.5,24.86,11111222 
ENP,ioos.station.NOAA.NDBC:TRRF1:1,2019-07-05T01:00:00Z,25.2170,-80.6500,1.5,25.11,11111222 
ENP,ioos.station.NOAA.NDBC:TRRF1:1,2019-07-05T02:00:00Z,25.2170,-80.6500,1.5,25.45,11111222 
ENP,ioos.station.NOAA.NDBC:TRRF1:1,2019-07-05T03:00:00Z,25.2170,-80.6500,1.5,25.7,11111222 
ENP,ioos.station.NOAA.NDBC:TRRF1:1,2019-07-05T04:00:00Z,25.2170,-80.6500,1.5,25.83,11111222 
ENP,ioos.station.NOAA.NDBC:TRRF1:1,2019-07-05T05:00:00Z,25.2170,-80.6500,1.5,26.0,11111222 
ENP,ioos.station.NOAA.NDBC:TRRF1:1,2019-07-05T06:00:00Z,25.2170,-80.6500,1.5,26.11,11111222 
ENP,ioos.station.NOAA.NDBC:TRRF1:1,2019-07-05T07:00:00Z,25.2170,-80.6500,1.5,26.31,11111222 
ENP,ioos.station.NOAA.NDBC:TRRF1:1,2019-07-05T08:00:00Z,25.2170,-80.6500,1.5,26.34,11111222 
ENP,ioos.station.NOAA.NDBC:TRRF1:1,2019-07-05T09:00:00Z,25.2170,-80.6500,1.5,26.54,11111222 
ENP,ioos.station.NOAA.NDBC:TRRF1:1,2019-07-05T10:00:00Z,25.2170,-80.6500,1.5,26.57,11111222 
ENP,ioos.station.NOAA.NDBC:TRRF1:1,2019-07-05T11:00:00Z,25.2170,-80.6500,1.5,26.68,11111222 
ENP,ioos.station.NOAA.NDBC:TRRF1:1,2019-07-05T12:00:00Z,25.2170,-80.6500,1.5,26.84,11111222 
ENP,ioos.station.NOAA.NDBC:TRRF1:1,2019-07-05T13:00:00Z,25.2170,-80.6500,1.5,26.41,11111222 
ENP,ioos.station.NOAA.NDBC:TRRF1:1,2019-07-05T14:00:00Z,25.2170,-80.6500,1.5,26.7,11111222 
ENP,ioos.station.NOAA.NDBC:TRRF1:1,2019-07-05T15:00:00Z,25.2170,-80.6500,1.5,26.72,11111222 
ENP,ioos.station.NOAA.NDBC:TRRF1:1,2019-07-05T16:00:00Z,25.2170,-80.6500,1.5,26.73,11111222 
ENP,ioos.station.NOAA.NDBC:TRRF1:1,2019-07-05T17:00:00Z,25.2170,-80.6500,1.5,26.72,11111222 
ENP,ioos.station.NOAA.NDBC:TRRF1:1,2019-07-05T18:00:00Z,25.2170,-80.6500,1.5,26.7,11111222 
ENP,ioos.station.NOAA.NDBC:TRRF1:1,2019-07-05T19:00:00Z,25.2170,-80.6500,1.5,26.85,11111222 
ENP,ioos.station.NOAA.NDBC:TRRF1:1,2019-07-05T20:00:00Z,25.2170,-80.6500,1.5,26.74,11111222 
ENP,ioos.station.NOAA.NDBC:TRRF1:1,2019-07-05T21:00:00Z,25.2170,-80.6500,1.5,27.0,11111222 
ENP,ioos.station.NOAA.NDBC:TRRF1:1,2019-07-05T22:00:00Z,25.2170,-80.6500,1.5,27.05,11111222 
ENP,ioos.station.NOAA.NDBC:TRRF1:1,2019-07-05T23:00:00Z,25.2170,-80.6500,1.5,27.05,11111222 
ENP,ioos.station.NOAA.NDBC:TRRF1:1,2019-07-06T00:00:00Z,25.2170,-80.6500,1.5,27.06,11111222 
ENP,ioos.station.NOAA.NDBC:TRRF1:1,2019-07-06T01:00:00Z,25.2170,-80.6500,1.5,27.1,11111222 
ENP,ioos.station.NOAA.NDBC:TRRF1:1,2019-07-06T02:00:00Z,25.2170,-80.6500,1.5,27.16,11111222 
ENP,ioos.station.NOAA.NDBC:TRRF1:1,2019-07-06T03:00:00Z,25.2170,-80.6500,1.5,27.3,11111222 
ENP,ioos.station.NOAA.NDBC:TRRF1:1,2019-07-06T04:00:00Z,25.2170,-80.6500,1.5,27.51,11111222 
ENP,ioos.station.NOAA.NDBC:TRRF1:1,2019-07-06T05:00:00Z,25.2170,-80.6500,1.5,27.61,11111222 
ENP,ioos.station.NOAA.NDBC:TRRF1:1,2019-07-06T06:00:00Z,25.2170,-80.6500,1.5,27.74,11111222 
ENP,ioos.station.NOAA.NDBC:TRRF1:1,2019-07-06T07:00:00Z,25.2170,-80.6500,1.5,27.72,11111222 
ENP,ioos.station.NOAA.NDBC:TRRF1:1,2019-07-06T08:00:00Z,25.2170,-80.6500,1.5,27.71,11111222 
ENP,ioos.station.NOAA.NDBC:TRRF1:1,2019-07-06T09:00:00Z,25.2170,-80.6500,1.5,27.79,11111222 
ENP,ioos.station.NOAA.NDBC:TRRF1:1,2019-07-06T10:00:00Z,25.2170,-80.6500,1.5,27.85,11111222 
ENP,ioos.station.NOAA.NDBC:TRRF1:1,2019-07-06T11:00:00Z,25.2170,-80.6500,1.5,27.92,11111222 
ENP,ioos.station.NOAA.NDBC:TRRF1:1,2019-07-06T12:00:00Z,25.2170,-80.6500,1.5,27.99,11111222 
ENP,ioos.station.NOAA.NDBC:TRRF1:1,2019-07-06T13:00:00Z,25.2170,-80.6500,1.5,28.03,11111222 
ENP,ioos.station.NOAA.NDBC:TRRF1:1,2019-07-06T14:00:00Z,25.2170,-80.6500,1.5,28.05,11111222 
ENP,ioos.station.NOAA.NDBC:TRRF1:1,2019-07-06T15:00:00Z,25.2170,-80.6500,1.5,28.14,11111222 
ENP,ioos.station.NOAA.NDBC:TRRF1:1,2019-07-06T16:00:00Z,25.2170,-80.6500,1.5,27.99,11111222 
ENP,ioos.station.NOAA.NDBC:TRRF1:1,2019-07-06T17:00:00Z,25.2170,-80.6500,1.5,27.99,11111222 
ENP,ioos.station.NOAA.NDBC:TRRF1:1,2019-07-06T18:00:00Z,25.2170,-80.6500,1.5,28.04,11111222 
ENP,ioos.station.NOAA.NDBC:TRRF1:1,2019-07-06T19:00:00Z,25.2170,-80.6500,1.5,28.09,11111222 
ENP,ioos.station.NOAA.NDBC:TRRF1:1,2019-07-06T20:00:00Z,25.2170,-80.6500,1.5,28.08,11111222 
ENP,ioos.station.NOAA.NDBC:TRRF1:1,2019-07-06T21:00:00Z,25.2170,-80.6500,1.5,28.1,11111222 
ENP,ioos.station.NOAA.NDBC:TRRF1:1,2019-07-06T22:00:00Z,25.2170,-80.6500,1.5,28.13,11111222 
ENP,ioos.station.NOAA.NDBC:TRRF1:1,2019-07-06T23:00:00Z,25.2170,-80.6500,1.5,28.1,11111222 
ENP,ioos.station.NOAA.NDBC:TRRF1:1,2019-07-07T00:00:00Z,25.2170,-80.6500,1.5,28.17,11111222 
ENP,ioos.station.NOAA.NDBC:TRRF1:1,2019-07-07T01:00:00Z,25.2170,-80.6500,1.5,28.2,11111222 
ENP,ioos.station.NOAA.NDBC:TRRF1:1,2019-07-07T02:00:00Z,25.2170,-80.6500,1.5,28.22,11111222 
ENP,ioos.station.NOAA.NDBC:TRRF1:1,2019-07-07T03:00:00Z,25.2170,-80.6500,1.5,28.3,11111222 
ENP,ioos.station.NOAA.NDBC:TRRF1:1,2019-07-07T04:00:00Z,25.2170,-80.6500,1.5,28.28,11111222 
ENP,ioos.station.NOAA.NDBC:TRRF1:1,2019-07-07T05:00:00Z,25.2170,-80.6500,1.5,28.29,11111222 
ENP,ioos.station.NOAA.NDBC:TRRF1:1,2019-07-07T06:00:00Z,25.2170,-80.6500,1.5,28.25,11111222 
ENP,ioos.station.NOAA.NDBC:TRRF1:1,2019-07-07T07:00:00Z,25.2170,-80.6500,1.5,28.17,11111222 
ENP,ioos.station.NOAA.NDBC:TRRF1:1,2019-07-07T08:00:00Z,25.2170,-80.6500,1.5,28.08,11111222 
ENP,ioos.station.NOAA.NDBC:TRRF1:1,2019-07-07T09:00:00Z,25.2170,-80.6500,1.5,27.98,11111222 
ENP,ioos.station.NOAA.NDBC:TRRF1:1,2019-07-07T10:00:00Z,25.2170,-80.6500,1.5,27.95,11111222 
ENP,ioos.station.NOAA.NDBC:TRRF1:1,2019-07-07T11:00:00Z,25.2170,-80.6500,1.5,27.82,11111222 
ENP,ioos.station.NOAA.NDBC:TRRF1:1,2019-07-07T12:00:00Z,25.2170,-80.6500,1.5,27.72,11111222 
ENP,ioos.station.NOAA.NDBC:TRRF1:1,2019-07-07T13:00:00Z,25.2170,-80.6500,1.5,27.57,11111222 
ENP,ioos.station.NOAA.NDBC:TRRF1:1,2019-07-07T14:00:00Z,25.2170,-80.6500,1.5,27.43,11111222 
ENP,ioos.station.NOAA.NDBC:TRRF1:1,2019-07-07T15:00:00Z,25.2170,-80.6500,1.5,27.07,11111222 
ENP,ioos.station.NOAA.NDBC:TRRF1:1,2019-07-07T16:00:00Z,25.2170,-80.6500,1.5,27.0,11111222 
ENP,ioos.station.NOAA.NDBC:TRRF1:1,2019-07-07T17:00:00Z,25.2170,-80.6500,1.5,26.89,11111222 
ENP,ioos.station.NOAA.NDBC:TRRF1:1,2019-07-07T18:00:00Z,25.2170,-80.6500,1.5,26.78,11111222 
ENP,ioos.station.NOAA.NDBC:TRRF1:1,2019-07-07T19:00:00Z,25.2170,-80.6500,1.5,26.81,11111222 
ENP,ioos.station.NOAA.NDBC:TRRF1:1,2019-07-07T20:00:00Z,25.2170,-80.6500,1.5,26.52,11111222 
ENP,ioos.station.NOAA.NDBC:TRRF1:1,2019-07-07T21:00:00Z,25.2170,-80.6500,1.5,26.78,11111222 
ENP,ioos.station.NOAA.NDBC:TRRF1:1,2019-07-07T22:00:00Z,25.2170,-80.6500,1.5,26.69,11111222 
ENP,ioos.station.NOAA.NDBC:TRRF1:1,2019-07-07T23:00:00Z,25.2170,-80.6500,1.5,26.6,11111222 
ENP,ioos.station.NOAA.NDBC:TRRF1:1,2019-07-08T00:00:00Z,25.2170,-80.6500,1.5,26.12,11111222 
ENP,ioos.station.NOAA.NDBC:TRRF1:1,2019-07-08T01:00:00Z,25.2170,-80.6500,1.5,25.71,11111222 
ENP,ioos.station.NOAA.NDBC:TRRF1:1,2019-07-08T02:00:00Z,25.2170,-80.6500,1.5,25.39,11111222 
ENP,ioos.station.NOAA.NDBC:TRRF1:1,2019-07-08T03:00:00Z,25.2170,-80.6500,1.5,25.2,11111222 
ENP,ioos.station.NOAA.NDBC:TRRF1:1,2019-07-08T04:00:00Z,25.2170,-80.6500,1.5,25.08,11111222 
ENP,ioos.station.NOAA.NDBC:TRRF1:1,2019-07-08T05:00:00Z,25.2170,-80.6500,1.5,24.94,11111222 
ENP,ioos.station.NOAA.NDBC:TRRF1:1,2019-07-08T06:00:00Z,25.2170,-80.6500,1.5,24.72,11111222 
ENP,ioos.station.NOAA.NDBC:TRRF1:1,2019-07-08T07:00:00Z,25.2170,-80.6500,1.5,23.69,11111222 
ENP,ioos.station.NOAA.NDBC:TRRF1:1,2019-07-08T08:00:00Z,25.2170,-80.6500,1.5,24.13,11111222 
ENP,ioos.station.NOAA.NDBC:TRRF1:1,2019-07-08T09:00:00Z,25.2170,-80.6500,1.5,22.47,11111222 
ENP,ioos.station.NOAA.NDBC:TRRF1:1,2019-07-08T10:00:00Z,25.2170,-80.6500,1.5,22.0,11111222 
ENP,ioos.station.NOAA.NDBC:TRRF1:1,2019-07-08T11:00:00Z,25.2170,-80.6500,1.5,20.71,11111222 
ENP,ioos.station.NOAA.NDBC:TRRF1:1,2019-07-08T12:00:00Z,25.2170,-80.6500,1.5,20.37,11111222 
ENP,ioos.station.NOAA.NDBC:TRRF1:1,2019-07-08T13:00:00Z,25.2170,-80.6500,1.5,19.69,11111222 
ENP,ioos.station.NOAA.NDBC:TRRF1:1,2019-07-08T14:00:00Z,25.2170,-80.6500,1.5,18.88,11111222 
ENP,ioos.station.NOAA.NDBC:TRRF1:1,2019-07-08T15:00:00Z,25.2170,-80.6500,1.5,17.77,11111222 
ENP,ioos.station.NOAA.NDBC:TRRF1:1,2019-07-08T16:00:00Z,25.2170,-80.6500,1.5,13.08,11111222 
ENP,ioos.station.NOAA.NDBC:TRRF1:1,2019-07-08T21:00:00Z,25.2170,-80.6500,1.5,17.1,11111222 
ENP,ioos.station.NOAA.NDBC:TRRF1:1,2019-07-08T22:00:00Z,25.2170,-80.6500,1.5,16.99,11111222 
ENP,ioos.station.NOAA.NDBC:TRRF1:1,2019-07-08T23:00:00Z,25.2170,-80.6500,1.5,16.92,11111222 
ENP,ioos.station.NOAA.NDBC:TRRF1:1,2019-07-09T00:00:00Z,25.2170,-80.6500,1.5,16.69,11111222 
ENP,ioos.station.NOAA.NDBC:TRRF1:1,2019-07-09T01:00:00Z,25.2170,-80.6500,1.5,16.64,11111222 
ENP,ioos.station.NOAA.NDBC:TRRF1:1,2019-07-09T02:00:00Z,25.2170,-80.6500,1.5,16.62,11111222 
ENP,ioos.station.NOAA.NDBC:TRRF1:1,2019-07-09T03:00:00Z,25.2170,-80.6500,1.5,16.4,11111222 
ENP,ioos.station.NOAA.NDBC:TRRF1:1,2019-07-09T04:00:00Z,25.2170,-80.6500,1.5,16.2,11111222 
ENP,ioos.station.NOAA.NDBC:TRRF1:1,2019-07-09T05:00:00Z,25.2170,-80.6500,1.5,16.06,11111222 
ENP,ioos.station.NOAA.NDBC:TRRF1:1,2019-07-09T06:00:00Z,25.2170,-80.6500,1.5,15.92,11111222 
ENP,ioos.station.NOAA.NDBC:TRRF1:1,2019-07-09T07:00:00Z,25.2170,-80.6500,1.5,15.69,11111222 
ENP,ioos.station.NOAA.NDBC:TRRF1:1,2019-07-09T08:00:00Z,25.2170,-80.6500,1.5,15.55,11111222 
ENP,ioos.station.NOAA.NDBC:TRRF1:1,2019-07-09T09:00:00Z,25.2170,-80.6500,1.5,15.4,11111222 
ENP,ioos.station.NOAA.NDBC:TRRF1:1,2019-07-09T10:00:00Z,25.2170,-80.6500,1.5,15.17,11111222 
ENP,ioos.station.NOAA.NDBC:TRRF1:1,2019-07-09T11:00:00Z,25.2170,-80.6500,1.5,14.44,11111222 
ENP,ioos.station.NOAA.NDBC:TRRF1:1,2019-07-09T12:00:00Z,25.2170,-80.6500,1.5,13.62,11111222 
ENP,ioos.station.NOAA.NDBC:TRRF1:1,2019-07-09T13:00:00Z,25.2170,-80.6500,1.5,13.21,11111222 
ENP,ioos.station.NOAA.NDBC:TRRF1:1,2019-07-09T14:00:00Z,25.2170,-80.6500,1.5,13.05,11111222 
ENP,ioos.station.NOAA.NDBC:TRRF1:1,2019-07-09T15:00:00Z,25.2170,-80.6500,1.5,13.0,11111222 
ENP,ioos.station.NOAA.NDBC:TRRF1:1,2019-07-09T16:00:00Z,25.2170,-80.6500,1.5,12.97,11111222 
ENP,ioos.station.NOAA.NDBC:TRRF1:1,2019-07-09T17:00:00Z,25.2170,-80.6500,1.5,12.92,11111222 
ENP,ioos.station.NOAA.NDBC:TRRF1:1,2019-07-09T18:00:00Z,25.2170,-80.6500,1.5,12.85,11111222 
ENP,ioos.station.NOAA.NDBC:TRRF1:1,2019-07-09T19:00:00Z,25.2170,-80.6500,1.5,12.8,11111222 
ENP,ioos.station.NOAA.NDBC:TRRF1:1,2019-07-09T20:00:00Z,25.2170,-80.6500,1.5,12.71,11111222 
ENP,ioos.station.NOAA.NDBC:TRRF1:1,2019-07-09T21:00:00Z,25.2170,-80.6500,1.5,12.64,11111222 
ENP,ioos.station.NOAA.NDBC:TRRF1:1,2019-07-09T22:00:00Z,25.2170,-80.6500,1.5,12.54,11111222 
ENP,ioos.station.NOAA.NDBC:TRRF1:1,2019-07-09T23:00:00Z,25.2170,-80.6500,1.5,12.41,11111222 
ENP,ioos.station.NOAA.NDBC:TRRF1:1,2019-07-10T00:00:00Z,25.2170,-80.6500,1.5,12.36,11111222 
ENP,ioos.station.NOAA.NDBC:TRRF1:1,2019-07-10T01:00:00Z,25.2170,-80.6500,1.5,12.34,11111222 
ENP,ioos.station.NOAA.NDBC:TRRF1:1,2019-07-10T02:00:00Z,25.2170,-80.6500,1.5,12.34,11111222 
ENP,ioos.station.NOAA.NDBC:TRRF1:1,2019-07-10T03:00:00Z,25.2170,-80.6500,1.5,12.3,11111222 
ENP,ioos.station.NOAA.NDBC:TRRF1:1,2019-07-10T04:00:00Z,25.2170,-80.6500,1.5,12.34,11111222 
ENP,ioos.station.NOAA.NDBC:TRRF1:1,2019-07-10T05:00:00Z,25.2170,-80.6500,1.5,12.34,11111222 
ENP,ioos.station.NOAA.NDBC:TRRF1:1,2019-07-10T06:00:00Z,25.2170,-80.6500,1.5,12.35,11111222 
ENP,ioos.station.NOAA.NDBC:TRRF1:1,2019-07-10T07:00:00Z,25.2170,-80.6500,1.5,12.36,11111222 
ENP,ioos.station.NOAA.NDBC:TRRF1:1,2019-07-10T08:00:00Z,25.2170,-80.6500,1.5,12.37,11111222 
ENP,ioos.station.NOAA.NDBC:TRRF1:1,2019-07-10T09:00:00Z,25.2170,-80.6500,1.5,12.37,11111222 
ENP,ioos.station.NOAA.NDBC:TRRF1:1,2019-07-10T10:00:00Z,25.2170,-80.6500,1.5,12.37,11111222 
ENP,ioos.station.NOAA.NDBC:TRRF1:1,2019-07-10T11:00:00Z,25.2170,-80.6500,1.5,12.38,11111222 
ENP,ioos.station.NOAA.NDBC:TRRF1:1,2019-07-10T12:00:00Z,25.2170,-80.6500,1.5,12.39,11111222 
ENP,ioos.station.NOAA.NDBC:TRRF1:1,2019-07-10T13:00:00Z,25.2170,-80.6500,1.5,12.39,11111222 
ENP,ioos.station.NOAA.NDBC:TRRF1:1,2019-07-10T14:00:00Z,25.2170,-80.6500,1.5,12.39,11111222 
ENP,ioos.station.NOAA.NDBC:TRRF1:1,2019-07-10T15:00:00Z,25.2170,-80.6500,1.5,12.38,11111222 
ENP,ioos.station.NOAA.NDBC:TRRF1:1,2019-07-10T16:00:00Z,25.2170,-80.6500,1.5,12.28,11111222 
ENP,ioos.station.NOAA.NDBC:TRRF1:1,2019-07-10T17:00:00Z,25.2170,-80.6500,1.5,12.21,11111222 
ENP,ioos.station.NOAA.NDBC:TRRF1:1,2019-07-10T18:00:00Z,25.2170,-80.6500,1.5,12.2,11111222 
ENP,ioos.station.NOAA.NDBC:TRRF1:1,2019-07-10T19:00:00Z,25.2170,-80.6500,1.5,12.21,11111222 
ENP,ioos.station.NOAA.NDBC:TRRF1:1,2019-07-10T20:00:00Z,25.2170,-80.6500,1.5,12.21,11111222 
ENP,ioos.station.NOAA.NDBC:TRRF1:1,2019-07-10T21:00:00Z,25.2170,-80.6500,1.5,11.99,11111222 
ENP,ioos.station.NOAA.NDBC:TRRF1:1,2019-07-10T22:00:00Z,25.2170,-80.6500,1.5,11.76,11111222 
ENP,ioos.station.NOAA.NDBC:TRRF1:1,2019-07-10T23:00:00Z,25.2170,-80.6500,1.5,11.63,11111222 
ENP,ioos.station.NOAA.NDBC:TRRF1:1,2019-07-11T00:00:00Z,25.2170,-80.6500,1.5,11.69,11111222 
ENP,ioos.station.NOAA.NDBC:TRRF1:1,2019-07-11T01:00:00Z,25.2170,-80.6500,1.5,12.01,11111222 
ENP,ioos.station.NOAA.NDBC:TRRF1:1,2019-07-11T02:00:00Z,25.2170,-80.6500,1.5,12.11,11111222 
ENP,ioos.station.NOAA.NDBC:TRRF1:1,2019-07-11T03:00:00Z,25.2170,-80.6500,1.5,12.2,11111222 
ENP,ioos.station.NOAA.NDBC:TRRF1:1,2019-07-11T04:00:00Z,25.2170,-80.6500,1.5,11.61,11111222 
ENP,ioos.station.NOAA.NDBC:TRRF1:1,2019-07-11T05:00:00Z,25.2170,-80.6500,1.5,11.3,11111222 
ENP,ioos.station.NOAA.NDBC:TRRF1:1,2019-07-11T06:00:00Z,25.2170,-80.6500,1.5,12.3,11111222 
ENP,ioos.station.NOAA.NDBC:TRRF1:1,2019-07-11T07:00:00Z,25.2170,-80.6500,1.5,12.39,11111222 
ENP,ioos.station.NOAA.NDBC:TRRF1:1,2019-07-11T08:00:00Z,25.2170,-80.6500,1.5,12.39,11111222 
ENP,ioos.station.NOAA.NDBC:TRRF1:1,2019-07-11T09:00:00Z,25.2170,-80.6500,1.5,11.96,11111222 
ENP,ioos.station.NOAA.NDBC:TRRF1:1,2019-07-11T10:00:00Z,25.2170,-80.6500,1.5,12.29,11111222 
ENP,ioos.station.NOAA.NDBC:TRRF1:1,2019-07-11T11:00:00Z,25.2170,-80.6500,1.5,12.3,11111222 
ENP,ioos.station.NOAA.NDBC:TRRF1:1,2019-07-11T12:00:00Z,25.2170,-80.6500,1.5,12.27,11111222 
ENP,ioos.station.NOAA.NDBC:TRRF1:1,2019-07-11T13:00:00Z,25.2170,-80.6500,1.5,11.51,11111222 
ENP,ioos.station.NOAA.NDBC:TRRF1:1,2019-07-11T14:00:00Z,25.2170,-80.6500,1.5,11.14,11111222 
ENP,ioos.station.NOAA.NDBC:TRRF1:1,2019-07-11T15:00:00Z,25.2170,-80.6500,1.5,11.02,11111222 
ENP,ioos.station.NOAA.NDBC:TRRF1:1,2019-07-11T16:00:00Z,25.2170,-80.6500,1.5,10.97,11111222 
ENP,ioos.station.NOAA.NDBC:TRRF1:1,2019-07-11T17:00:00Z,25.2170,-80.6500,1.5,10.89,11111222 
ENP,ioos.station.NOAA.NDBC:TRRF1:1,2019-07-11T18:00:00Z,25.2170,-80.6500,1.5,10.83,11111222 
ENP,ioos.station.NOAA.NDBC:TRRF1:1,2019-07-11T19:00:00Z,25.2170,-80.6500,1.5,10.74,11111222 
ENP,ioos.station.NOAA.NDBC:TRRF1:1,2019-07-11T20:00:00Z,25.2170,-80.6500,1.5,10.68,11111222 